Waarnemingen

Advertentie
Mijn weer
Montauban, Frankrijk (7540): temperatuur & dauwpunt: 27.05.2020 08:00:00 - 02.06.2020 08:00:00 (CEST)Montauban, Frankrijk (7540): temperatuur 5cm: 27.05.2020 08:00:00 - 02.06.2020 08:00:00 (CEST)Montauban, Frankrijk (7540): temperatuur -20cm & temperatuur -100cm: 27.05.2020 08:00:00 - 02.06.2020 08:00:00 (CEST)Montauban, Frankrijk (7540): windsnelheid & windstoten: 27.05.2020 08:00:00 - 02.06.2020 08:00:00 (CEST)Montauban, Frankrijk (7540): windrichting: 27.05.2020 08:00:00 - 02.06.2020 08:00:00 (CEST)Montauban, Frankrijk (7540): luchtdruk: 27.05.2020 08:00:00 - 02.06.2020 08:00:00 (CEST)Montauban, Frankrijk (7540): zicht: 27.05.2020 08:00:00 - 02.06.2020 08:00:00 (CEST)Montauban, Frankrijk (7540): Zonneschijnduur: 27.05.2020 08:00:00 - 02.06.2020 08:00:00 (CEST)Montauban, Frankrijk (7540): neerslag: 27.05.2020 08:00:00 - 02.06.2020 08:00:00 (CEST)
Datum & Tijd tt [°C] td [°C] tt 5cm [°C] tt -20cm [°C] tt -100cm [°C] ff [km/u] ff [kn] fx [km/u] fx [kn] dd ppp [hPa] vv [km] sd [min] rr [mm]
02.06.2020 08:00:00 15,9 13,6 15,7 22,6 19,6 4 2 7 4 ONO 1016,8 20 28 0,0
02.06.2020 07:00:00 14,7 13,1 12,8 22,7 19,6 3 1 9 5 O 1016,6 20 22 0,0
02.06.2020 06:00:00 14,4 12,8 13,2 22,9 19,6 5 3 8 4 O 1016,2 20 0 0,0
02.06.2020 05:00:00 14,3 12,7 13,2 23,0 19,6 4 2 9 5 O 1016,1 20 0 0,0
02.06.2020 04:00:00 15,0 12,9 13,7 23,1 19,6 7 4 16 9 O 1016,2 20 0 0,0
02.06.2020 03:00:00 15,7 13,0 14,4 23,2 19,6 5 3 8 5 O 1016,3 20 0 0,0
02.06.2020 02:00:00 17,1 13,2 15,5 23,3 19,6 4 2 15 8 O 1016,5 20 0 0,0
02.06.2020 01:00:00 16,4 13,1 15,2 23,4 19,6 5 3 10 6 ZZW 1017,1 20 0 0,0
02.06.2020 00:00:00 16,8 12,7 16,1 23,5 19,6 10 5 19 11 O 1017,3 20 0 0,0
01.06.2020 23:00:00 17,9 12,6 16,9 23,5 19,5 12 6 32 18 O 1017,2 20 0 0,0
01.06.2020 22:00:00 20,3 11,8 19,9 23,5 19,6 18 10 38 21 NO 1016,9 20 0 0,0
01.06.2020 21:00:00 22,0 15,6 21,2 23,5 19,5 8 4 23 12 Z 1015,0 20 4 0,0
01.06.2020 20:00:00 23,0 15,8 23,3 23,5 19,5 14 8 24 13 ZZW 1014,7 20 24 0,0
01.06.2020 19:00:00 24,1 15,8 24,8 23,4 19,5 11 6 27 14 Z 1014,6 20 15 0,0
01.06.2020 18:00:00 24,8 16,5 27,2 23,3 19,5 14 8 29 16 Z 1014,5 20 47 0,0
01.06.2020 17:00:00 23,8 16,6 22,6 23,3 19,5 10 5 18 10 Z 1014,2 20 4 0,0
01.06.2020 16:00:00 22,6 18,2 20,6 23,2 19,5 5 3 8 4 W 1014,9 20 0 0,4
01.06.2020 15:00:00 23,7 15,7 21,9 23,2 19,5 2 1 18 10 ZW 1015,1 20 0 0,0
01.06.2020 14:00:00 23,8 14,8 25,7 23,0 19,5 8 4 15 8 ZO 1014,8 20 1 0,0
01.06.2020 13:00:00 23,4 14,9 26,4 23,0 19,5 10 5 26 14 ZZW 1014,8 20 1 0,0
01.06.2020 12:00:00 23,7 15,2 25,7 23,0 19,5 13 7 26 14 Z 1014,5 20 46 0,0
01.06.2020 11:00:00 22,6 14,2 26,7 23,0 19,5 17 9 28 15 ZZO 1014,6 20 53 0,0
01.06.2020 10:00:00 21,2 13,9 23,7 23,1 19,4 13 7 19 11 ZO 1014,8 20 60 0,0
01.06.2020 09:00:00 19,2 14,0 17,9 23,2 19,4 5 3 12 6 ZO 1014,7 20 45 0,0
01.06.2020 08:00:00 16,1 12,8 14,8 23,4 19,4 5 3 9 5 OZO 1014,6 20 0 0,0
01.06.2020 07:00:00 15,2 12,7 11,9 23,6 19,4 4 2 6 4 OZO 1014,4 20 0 0,0
01.06.2020 06:00:00 14,7 12,2 12,3 23,7 19,4 2 1 5 3 ZO 1013,8 9 0 0,0
01.06.2020 05:00:00 15,0 12,5 12,7 23,9 19,4 3 1 6 3 Z 1013,6 20 0 0,0
01.06.2020 04:00:00 16,1 13,0 13,3 24,0 19,4 6 3 9 5 O 1013,4 20 0 0,0
01.06.2020 03:00:00 17,3 13,2 14,5 24,1 19,4 4 2 8 4 ONO 1013,5 20 0 0,0
01.06.2020 02:00:00 17,9 13,2 14,4 24,3 19,4 4 2 5 3 OZO 1013,5 20 0 0,0
01.06.2020 01:00:00 18,1 13,2 15,5 24,3 19,4 0 0 8 4 N 1013,7 20 0 0,0
01.06.2020 00:00:00 19,3 13,5 17,4 24,4 19,3 4 2 18 10 OZO 1013,5 20 0 0,0
31.05.2020 23:00:00 20,1 13,8 18,2 24,4 19,3 8 5 18 10 ZO 1013,6 20 0 0,0
31.05.2020 22:00:00 21,7 14,1 20,1 24,4 19,3 12 7 20 11 ZZO 1012,8 20 5 0,0
31.05.2020 21:00:00 23,6 14,0 23,7 24,4 19,3 12 7 24 13 ZZO 1011,9 20 56 0,0
31.05.2020 20:00:00 25,6 13,8 28,5 24,2 19,3 12 6 28 15 ZZO 1011,2 20 60 0,0
31.05.2020 19:00:00 26,8 14,5 31,4 24,0 19,3 19 10 29 16 ZZO 1010,4 20 60 0,0
31.05.2020 18:00:00 27,6 13,2 33,5 23,8 19,3 16 9 29 15 ZZO 1010,7 20 60 0,0
31.05.2020 17:00:00 28,3 13,0 28,2 23,5 19,3 12 7 30 16 ZO 1010,9 20 53 0,0
31.05.2020 16:00:00 28,0 11,9 28,4 23,3 19,3 17 9 26 14 OZO 1011,2 20 48 0,0
31.05.2020 15:00:00 27,6 13,5 29,3 23,1 19,3 15 8 29 16 OZO 1011,5 20 54 0,0
31.05.2020 14:00:00 26,7 14,5 30,4 22,9 19,3 11 6 22 12 OZO 1012,1 20 58 0,0
31.05.2020 13:00:00 25,4 15,1 32,2 22,8 19,2 11 6 23 12 ZZO 1012,5 20 60 0,0
31.05.2020 12:00:00 24,3 15,2 30,7 22,8 19,2 10 6 25 14 ZZO 1012,8 20 60 0,0
31.05.2020 11:00:00 22,9 13,9 28,0 22,9 19,2 13 7 24 13 Z 1012,9 20 60 0,0
31.05.2020 10:00:00 21,5 13,7 24,8 23,0 19,2 13 7 18 10 ZO 1013,1 20 60 0,0
31.05.2020 09:00:00 19,9 13,6 20,9 23,1 19,2 9 5 14 7 OZO 1013,2 20 60 0,0
31.05.2020 08:00:00 17,1 12,8 15,1 23,3 19,2 6 4 10 6 ZO 1013,6 20 60 0,0
31.05.2020 07:00:00 15,0 12,5 11,8 23,4 19,2 3 2 9 5 ZZO 1013,5 20 21 0,0
31.05.2020 06:00:00 14,3 12,3 11,6 23,6 19,2 5 3 12 6 ZZO 1013,1 20 0 0,0
31.05.2020 05:00:00 14,4 11,9 11,7 23,8 19,2 6 3 10 5 Z 1013,0 20 0 0,0
31.05.2020 04:00:00 15,6 12,9 12,3 23,9 19,2 6 3 7 4 ZZO 1012,9 20 0 0,0
31.05.2020 03:00:00 16,7 12,4 13,7 24,0 19,2 3 1 9 5 OZO 1013,4 20 0 0,0
31.05.2020 02:00:00 18,4 12,8 15,7 24,1 19,1 6 3 13 7 ZO 1013,5 20 0 0,0
31.05.2020 01:00:00 19,3 13,0 16,9 24,2 19,1 4 2 22 12 Z 1013,6 20 0 0,0
31.05.2020 00:00:00 20,3 13,3 18,6 24,3 19,2 9 5 24 13 Z 1013,4 20 0 0,0
30.05.2020 23:00:00 21,5 13,1 20,0 24,3 19,1 13 7 25 14 Z 1013,0 20 0 0,0
30.05.2020 22:00:00 23,1 13,3 21,4 24,3 19,1 12 7 23 12 Z 1012,3 20 4 0,0
30.05.2020 21:00:00 25,5 13,4 24,9 24,2 19,1 8 4 11 6 Z 1011,8 20 60 0,0
30.05.2020 20:00:00 27,6 9,9 32,7 24,1 19,1 4 2 10 6 Z 1011,7 20 60 0,0
30.05.2020 19:00:00 28,1 10,3 34,7 23,9 19,1 4 2 10 6 O 1011,8 20 60 0,0
30.05.2020 18:00:00 28,1 10,8 35,6 23,6 19,1 5 3 12 6 OZO 1012,1 20 60 0,0
30.05.2020 17:00:00 28,1 9,4 27,8 23,3 19,1 4 2 11 6 ZZW 1012,4 20 26 0,0
30.05.2020 16:00:00 27,0 12,2 30,6 23,1 19,1 6 3 17 9 ZO 1013,0 20 55 0,0
30.05.2020 15:00:00 26,8 13,9 34,3 22,8 19,1 6 4 20 11 ZZO 1013,4 20 60 0,0
30.05.2020 14:00:00 26,1 14,9 33,3 22,7 19,0 8 4 17 9 Z 1013,9 20 60 0,0
30.05.2020 13:00:00 24,8 14,6 31,9 22,6 19,0 8 4 20 11 ZZO 1014,7 20 60 0,0
30.05.2020 12:00:00 23,7 14,7 30,1 22,5 19,0 9 5 23 12 ZO 1015,0 20 60 0,0
30.05.2020 11:00:00 22,4 14,5 28,3 22,6 19,0 11 6 19 10 ZO 1015,4 20 60 0,0
30.05.2020 10:00:00 20,8 13,5 24,4 22,7 19,0 8 5 15 8 ZO 1015,8 20 60 0,0
30.05.2020 09:00:00 19,1 12,8 20,8 22,9 19,0 6 4 12 7 OZO 1015,9 20 60 0,0
30.05.2020 08:00:00 16,8 11,9 13,8 23,1 19,0 5 3 8 5 OZO 1016,1 20 60 0,0
30.05.2020 07:00:00 14,2 11,7 10,4 23,2 19,0 5 3 6 3 ZO 1016,3 20 20 0,0
30.05.2020 06:00:00 14,0 11,5 10,5 23,4 19,0 3 1 8 4 ZO 1016,0 20 0 0,0
30.05.2020 05:00:00 14,4 11,9 11,4 23,5 19,0 5 3 7 4 OZO 1016,0 20 0 0,0
30.05.2020 04:00:00 15,3 12,8 11,8 23,7 19,0 4 2 5 3 ZO 1016,3 20 0 0,0
30.05.2020 03:00:00 16,3 12,5 12,6 23,9 19,0 4 2 7 4 OZO 1016,4 20 0 0,0
30.05.2020 02:00:00 17,8 13,1 14,1 24,0 19,0 4 2 11 6 O 1016,2 20 0 0,0
30.05.2020 01:00:00 18,9 12,9 16,6 24,1 18,9 6 3 15 8 OZO 1016,2 20 0 0,0
30.05.2020 00:00:00 19,9 11,4 16,9 24,2 18,9 6 3 35 19 OZO 1015,9 20 0 0,0
29.05.2020 23:00:00 21,5 10,0 15,3 24,2 18,9 19 10 37 20 Z 1015,2 20 0 0,0
29.05.2020 22:00:00 22,1 8,9 15,5 24,1 18,9 4 2 9 5 OZO 1014,2 4,4 3 0,0
29.05.2020 21:00:00 26,6 6,1 25,6 24,1 18,9 7 4 19 10 ONO 1013,7 20 60 0,0
29.05.2020 20:00:00 28,8 6,2 32,0 23,9 18,9 8 5 18 10 N 1013,2 20 60 0,0
29.05.2020 19:00:00 29,4 7,3 35,0 23,6 18,9 7 4 19 11 NNO 1013,2 20 60 0,0
29.05.2020 18:00:00 29,6 10,2 37,0 23,4 18,9 6 3 23 12 NNW 1013,5 20 60 0,0
29.05.2020 17:00:00 29,4 10,0 35,7 23,1 18,9 8 4 20 11 ONO 1013,6 20 60 0,0
29.05.2020 16:00:00 28,9 9,6 35,0 22,9 18,8 8 4 23 12 N 1014,2 20 60 0,0
29.05.2020 15:00:00 28,6 10,7 34,9 22,6 18,8 7 4 21 11 O 1014,5 20 60 0,0
29.05.2020 14:00:00 27,3 12,5 33,8 22,4 18,8 9 5 19 10 OZO 1015,4 20 60 0,0
29.05.2020 13:00:00 26,3 12,7 33,0 22,4 18,8 5 3 18 10 ONO 1015,8 20 60 0,0
29.05.2020 12:00:00 25,7 12,5 30,7 22,3 18,8 3 1 13 7 NNW 1016,2 20 60 0,0
29.05.2020 11:00:00 23,6 13,2 29,7 22,4 18,8 6 3 12 7 O 1016,7 20 60 0,0
29.05.2020 10:00:00 21,9 11,6 25,1 22,5 18,8 5 3 13 7 NO 1017,2 20 60 0,0
29.05.2020 09:00:00 19,9 11,4 21,3 22,6 18,8 6 4 13 7 ONO 1017,5 20 60 0,0
29.05.2020 08:00:00 18,2 10,8 14,0 22,8 18,8 5 3 9 5 O 1017,8 20 60 0,0
29.05.2020 07:00:00 13,9 11,2 10,7 23,0 18,7 3 2 5 3 ZO 1018,1 20 20 0,0
29.05.2020 06:00:00 13,7 11,4 10,8 23,1 18,8 2 1 3 2 O 1017,9 19 0 0,0
29.05.2020 05:00:00 14,5 12,0 11,6 23,3 18,8 2 1 4 2 ZZO 1018,0 20 0 0,0
29.05.2020 04:00:00 15,1 12,2 11,9 23,4 18,7 2 1 6 3 ZZO 1018,2 20 0 0,0
29.05.2020 03:00:00 16,1 13,0 14,0 23,6 18,8 4 2 9 5 O 1018,4 20 0 0,0
29.05.2020 02:00:00 17,3 13,4 13,7 23,7 18,7 3 1 16 9 NO 1018,7 20 0 0,0
29.05.2020 01:00:00 18,1 12,5 14,2 23,8 18,7 2 1 5 3 Z 1019,0 20 0 0,0
29.05.2020 00:00:00 19,3 12,8 14,9 23,9 18,7 0 0 5 3 N 1019,4 20 0 0,0
28.05.2020 23:00:00 20,7 13,9 16,6 23,9 18,7 3 1 6 4 ZZW 1019,5 20 0 0,0
28.05.2020 22:00:00 22,6 13,4 18,0 23,8 18,7 2 1 7 4 WZW 1019,2 7 2 0,0
28.05.2020 21:00:00 27,1 10,3 25,7 23,7 18,7 5 3 13 7 W 1019,2 20 60 0,0
28.05.2020 20:00:00 28,7 10,4 30,7 23,5 18,7 5 3 15 8 WNW 1019,3 20 60 0,0
28.05.2020 19:00:00 29,3 9,9 35,2 23,3 18,7 4 2 16 8 NNO 1019,5 20 60 0,0
28.05.2020 18:00:00 29,6 9,2 36,2 23,0 18,7 6 3 13 7 NNW 1020,2 20 60 0,0
28.05.2020 17:00:00 29,6 7,5 35,8 22,7 18,6 4 2 15 8 NNO 1020,8 20 60 0,0
28.05.2020 16:00:00 28,2 11,7 35,3 22,5 18,6 9 5 16 9 O 1021,6 20 60 0,0
28.05.2020 15:00:00 27,7 11,7 35,3 22,2 18,6 6 4 14 7 ZO 1022,4 20 60 0,0
28.05.2020 14:00:00 27,1 13,1 34,5 22,1 18,6 4 2 11 6 Z 1023,0 20 60 0,0
28.05.2020 13:00:00 25,9 13,1 33,4 21,9 18,6 3 1 14 8 ZO 1023,8 20 60 0,0
28.05.2020 12:00:00 24,6 13,2 30,9 21,9 18,6 4 2 10 5 Z 1024,4 20 60 0,0
28.05.2020 11:00:00 23,1 12,4 28,4 22,0 18,6 4 2 12 6 ZZO 1024,9 20 60 0,0
28.05.2020 10:00:00 21,0 11,6 26,6 22,1 18,6 4 2 10 5 Z 1025,5 20 60 0,0
28.05.2020 09:00:00 19,4 11,9 22,2 22,2 18,6 4 2 8 5 ZZO 1025,8 20 60 0,0
28.05.2020 08:00:00 17,3 12,0 13,4 22,4 18,7 2 1 4 2 ZZO 1025,9 20 60 0,0
28.05.2020 07:00:00 13,5 11,7 10,2 22,5 18,6 3 1 5 3 Z 1026,1 20 19 0,0
28.05.2020 06:00:00 13,3 11,9 10,3 22,7 18,6 0 0 8 5 N 1026,0 20 0 0,0
28.05.2020 05:00:00 14,1 12,5 11,1 22,8 18,6 0 0 5 3 N 1026,0 20 0 0,0
28.05.2020 04:00:00 15,1 13,0 11,9 23,0 18,6 2 1 5 3 O 1026,1 20 0 0,0
28.05.2020 03:00:00 15,4 12,7 11,9 23,1 18,5 0 0 6 4 N 1026,4 20 0 0,0
28.05.2020 02:00:00 17,9 13,4 14,7 23,2 18,5 5 3 10 5 O 1026,7 20 0 0,0
28.05.2020 01:00:00 18,8 13,4 15,2 23,3 18,5 3 2 13 7 ZO 1026,7 20 0 0,0
28.05.2020 00:00:00 19,8 13,5 17,5 23,3 18,5 7 4 16 8 Z 1026,4 20 0 0,0
27.05.2020 23:00:00 21,4 14,1 19,6 23,3 18,5 9 5 18 10 Z 1026,3 20 0 0,0
27.05.2020 22:00:00 23,0 13,5 21,4 23,3 18,5 13 7 27 14 Z 1025,5 20 2 0,0
27.05.2020 21:00:00 24,9 13,4 24,7 23,1 18,5 21 11 30 16 Z 1025,0 20 60 0,0
27.05.2020 20:00:00 27,8 12,2 30,4 22,9 18,5 7 4 15 8 O 1024,5 20 60 0,0
27.05.2020 19:00:00 28,5 10,2 32,3 22,7 18,5 5 3 16 8 O 1024,5 20 58 0,0
27.05.2020 18:00:00 27,9 13,0 31,8 22,4 18,5 5 3 17 9 OZO 1024,8 20 56 0,0
27.05.2020 17:00:00 29,1 12,5 35,3 22,1 18,4 3 2 17 9 WNW 1024,9 20 60 0,0
27.05.2020 16:00:00 28,1 12,4 35,3 21,8 18,4 5 3 18 10 Z 1025,4 20 60 0,0
27.05.2020 15:00:00 27,3 14,0 33,8 21,6 18,4 9 5 18 10 Z 1025,8 20 60 0,0
27.05.2020 14:00:00 26,3 13,8 32,6 21,5 18,5 6 3 16 9 Z 1026,1 20 60 0,0
27.05.2020 13:00:00 24,9 13,1 31,6 21,3 18,4 8 5 17 9 ZZO 1026,6 20 60 0,0
27.05.2020 12:00:00 24,2 13,1 30,4 21,3 18,4 5 3 15 8 OZO 1026,8 20 60 0,0
27.05.2020 11:00:00 22,8 11,8 28,7 21,4 18,4 3 2 10 6 NO 1026,9 20 60 0,0
27.05.2020 10:00:00 21,3 10,5 24,5 21,5 18,4 4 2 10 6 OZO 1026,9 20 60 0,0
27.05.2020 09:00:00 19,1 9,0 19,7 21,6 18,4 5 3 11 6 ONO 1026,7 20 60 0,0
27.05.2020 08:00:00 16,7 7,6 13,6 21,8 18,4 4 2 8 5 O 1026,7 20 60 0,0

tt = temperatuur
td = dauwpunt
tt 5cm = temperatuur 5cm
tt -20cm = temperatuur -20cm
tt -100cm = temperatuur -100cm
ff = windsnelheid
fx = windstoten
dd = windrichting
ppp = luchtdruk
vv = zicht
sd = Zonneschijnduur
rr = neerslag

Weerstations in de omgeving